| time (UTC) | temp C | wind direction | speed KPH | gust KPH | rain 1hr cm | rain 24hr cm | rain mn cm | humidity % | barometer mb |
| 20260906161555 | 24 | 93 | 4.8 | 11.3 | 0.00 | 0.00 | 0.00 | 73 | 1023.5 |
| 20260906161054 | 25 | 39 | 1.6 | 4.8 | 0.00 | 0.00 | 0.00 | 74 | 1023.6 |
| 20260906160553 | 24 | 146 | 1.6 | 9.7 | 0.00 | 0.00 | 0.00 | 75 | 1023.6 |
| 20260906160052 | 25 | 61 | 0.0 | 4.8 | 0.00 | 0.00 | 0.00 | 74 | 1023.7 |
| 20260906155549 | 23 | 176 | 1.6 | 1.6 | 0.00 | 0.00 | 0.00 | 79 | 1023.7 |
| 20260906155046 | 23 | 71 | 8.0 | 12.9 | 0.00 | 0.00 | 0.00 | 79 | 1023.7 |
| 20260906154541 | 23 | 161 | 1.6 | 4.8 | 0.00 | 0.00 | 0.00 | 80 | 1023.6 |
| 20260906154040 | 23 | 151 | 4.8 | 4.8 | 0.00 | 0.00 | 0.00 | 78 | 1023.7 |
| 20260906153539 | 23 | 197 | 1.6 | 9.7 | 0.00 | 0.00 | 0.00 | 80 | 1023.7 |
| 20260906153035 | 22 | 202 | 3.2 | 9.7 | 0.00 | 0.00 | 0.00 | 81 | 1023.8 |
| 20260906152533 | 23 | 175 | 6.4 | 9.7 | 0.00 | 0.00 | 0.00 | 78 | 1023.6 |
| 20260906152033 | 23 | 33 | 1.6 | 8.0 | 0.00 | 0.00 | 0.00 | 81 | 1023.8 |
| 20260906151529 | 23 | 55 | 3.2 | 12.9 | 0.00 | 0.00 | 0.00 | 79 | 1023.9 |
| 20260906151024 | 22 | 185 | 1.6 | 9.7 | 0.00 | 0.00 | 0.00 | 81 | 1023.7 |
| 20260906150519 | 23 | 43 | 3.2 | 4.8 | 0.00 | 0.00 | 0.00 | 80 | 1023.8 |
| 20260906150014 | 23 | 215 | 1.6 | 4.8 | 0.00 | 0.00 | 0.00 | 81 | 1023.7 |
| 20260906145513 | 23 | 177 | 0.0 | 3.2 | 0.00 | 0.00 | 0.00 | 82 | 1023.5 |
| 20260906145008 | 22 | 155 | 3.2 | 4.8 | 0.00 | 0.00 | 0.00 | 82 | 1023.6 |
| 20260906144502 | 22 | 111 | 0.0 | 8.0 | 0.00 | 0.00 | 0.00 | 84 | 1023.4 |
| 20260906143958 | 22 | 197 | 4.8 | 8.0 | 0.00 | 0.00 | 0.00 | 84 | 1023.5 |
| 20260906143453 | 22 | 209 | 0.0 | 8.0 | 0.00 | 0.00 | 0.00 | 85 | 1023.1 |
| 20260906142949 | 21 | 138 | 4.8 | 8.0 | 0.00 | 0.00 | 0.00 | 83 | 1023.4 |
| 20260906142443 | 21 | 162 | 1.6 | 8.0 | 0.00 | 0.00 | 0.00 | 85 | 1023.4 |
| 20260906141938 | 21 | 177 | 4.8 | 4.8 | 0.00 | 0.00 | 0.00 | 84 | 1023.7 |
| 20260906141437 | 22 | 125 | 4.8 | 4.8 | 0.00 | 0.00 | 0.00 | 83 | 1023.6 |
| 20260906140932 | 21 | 151 | 4.8 | 4.8 | 0.00 | 0.00 | 0.00 | 84 | 1023.4 |
| 20260906140427 | 22 | 119 | 0.0 | 1.6 | 0.00 | 0.00 | 0.00 | 84 | 1023.7 |
| 20260906135925 | 21 | 166 | 0.0 | 1.6 | 0.00 | 0.00 | 0.00 | 85 | 1023.7 |
| 20260906135424 | 20 | 159 | 0.0 | 8.0 | 0.00 | 0.00 | 0.00 | 87 | 1023.6 |
| 20260906134920 | 20 | 206 | 1.6 | 8.0 | 0.00 | 0.00 | 0.00 | 88 | 1023.5 |
| 20260906134415 | 20 | 192 | 1.6 | 3.2 | 0.00 | 0.00 | 0.00 | 88 | 1023.7 |
| 20260906133910 | 20 | 146 | 1.6 | 3.2 | 0.00 | 0.00 | 0.00 | 88 | 1023.8 |
| 20260906133405 | 20 | 69 | 1.6 | 3.2 | 0.00 | 0.00 | 0.00 | 88 | 1023.6 |
| 20260906132901 | 20 | 120 | 1.6 | 4.8 | 0.00 | 0.00 | 0.00 | 90 | 1023.5 |
| 20260906132356 | 19 | 109 | 1.6 | 1.6 | 0.00 | 0.00 | 0.00 | 91 | 1023.5 |
| 20260906131852 | 18 | 159 | 1.6 | 4.8 | 0.00 | 0.00 | 0.00 | 91 | 1023.4 |
| 20260906131347 | 18 | 138 | 4.8 | 8.0 | 0.00 | 0.00 | 0.00 | 92 | 1023.4 |
| 20260906130843 | 18 | 130 | 1.6 | 3.2 | 0.00 | 0.00 | 0.00 | 95 | 1023.3 |
| 20260906130342 | 17 | 59 | 0.0 | 1.6 | 0.00 | 0.00 | 0.00 | 97 | 1023.3 |
| 20260906125841 | 17 | 338 | 1.6 | 3.2 | 0.00 | 0.00 | 0.00 | 97 | 1023.0 |
| 20260906125338 | 17 | 58 | 1.6 | 3.2 | 0.00 | 0.00 | 0.00 | 98 | 1023.3 |
| 20260906124833 | 16 | 55 | 0.0 | 1.6 | 0.00 | 0.00 | 0.00 | 98 | 1023.1 |
| 20260906124329 | 16 | 61 | 1.6 | 1.6 | 0.00 | 0.00 | 0.00 | 98 | 1023.0 |
| 20260906123828 | 16 | 324 | 1.6 | 3.2 | 0.00 | 0.00 | 0.00 | 99 | 1023.1 |
| 20260906123323 | 16 | 165 | 0.0 | 3.2 | 0.00 | 0.00 | 0.00 | 99 | 1022.9 |
| 20260906122823 | 16 | 104 | 0.0 | 3.2 | 0.00 | 0.00 | 0.00 | 99 | 1023.1 |
| 20260906122318 | 16 | 78 | 1.6 | 1.6 | 0.00 | 0.00 | 0.00 | 99 | 1023.0 |
| 20260906121815 | 15 | 287 | 1.6 | 1.6 | 0.00 | 0.00 | 0.00 | 99 | 1023.0 |
| 20260906121305 | 15 | 54 | 0.0 | 3.2 | 0.00 | 0.00 | 0.00 | 99 | 1022.9 |
| 20260906120801 | 15 | 27 | 1.6 | 4.8 | 0.00 | 0.00 | 0.00 | 99 | 1022.7 |
| 20260906120257 | 15 | 12 | 1.6 | 3.2 | 0.00 | 0.00 | 0.00 | 99 | 1022.9 |
| 20260906115753 | 15 | 1 | 1.6 | 3.2 | 0.00 | 0.00 | 0.00 | 99 | 1022.8 |
| 20260906115248 | 15 | 33 | 3.2 | 4.8 | 0.00 | 0.00 | 0.00 | 99 | 1022.7 |
| 20260906114747 | 15 | 25 | 4.8 | 4.8 | 0.00 | 0.00 | 0.00 | 99 | 1022.5 |
| 20260906114242 | 15 | 31 | 3.2 | 4.8 | 0.00 | 0.00 | 0.00 | 99 | 1022.4 |
| 20260906113738 | 15 | 26 | 4.8 | 4.8 | 0.00 | 0.00 | 0.00 | 99 | 1022.4 |
| 20260906113237 | 15 | 21 | 3.2 | 4.8 | 0.00 | 0.00 | 0.00 | 99 | 1022.3 |
| 20260906112737 | 15 | 19 | 3.2 | 3.2 | 0.00 | 0.00 | 0.00 | 99 | 1022.1 |
| 20260906112233 | 15 | 335 | 1.6 | 3.2 | 0.00 | 0.00 | 0.00 | 99 | 1022.3 |
| 20260906111733 | 15 | 338 | 3.2 | 4.8 | 0.00 | 0.00 | 0.00 | 99 | 1022.2 |
| 20260906111227 | 15 | 51 | 4.8 | 4.8 | 0.00 | 0.00 | 0.00 | 99 | 1022.0 |
| 20260906110722 | 14 | 21 | 1.6 | 4.8 | 0.00 | 0.00 | 0.00 | 99 | 1022.0 |
| 20260906110218 | 15 | 44 | 1.6 | 3.2 | 0.00 | 0.00 | 0.00 | 99 | 1022.2 |
| 20260906105717 | 15 | 340 | 1.6 | 4.8 | 0.00 | 0.00 | 0.00 | 99 | 1022.0 |
| 20260906105213 | 14 | 30 | 1.6 | 3.2 | 0.00 | 0.00 | 0.00 | 99 | 1021.8 |
| 20260906104713 | 14 | 290 | 0.0 | 3.2 | 0.00 | 0.00 | 0.00 | 99 | 1021.7 |
| 20260906104212 | 14 | 354 | 1.6 | 4.8 | 0.00 | 0.00 | 0.00 | 99 | 1022.1 |
| 20260906103710 | 14 | 25 | 3.2 | 3.2 | 0.00 | 0.00 | 0.00 | 99 | 1022.0 |
| 20260906103205 | 14 | 63 | 3.2 | 3.2 | 0.00 | 0.00 | 0.00 | 99 | 1022.0 |
| 20260906102701 | 14 | 16 | 3.2 | 9.7 | 0.00 | 0.00 | 0.00 | 99 | 1022.2 |
| 20260906102159 | 14 | 18 | 3.2 | 3.2 | 0.00 | 0.00 | 0.00 | 99 | 1022.1 |
| 20260906101654 | 14 | 36 | 0.0 | 0.0 | 0.00 | 0.00 | 0.00 | 99 | 1022.2 |
| 20260906101149 | 14 | 90 | 3.2 | 3.2 | 0.00 | 0.00 | 0.00 | 99 | 1022.2 |
| 20260906100644 | 14 | 353 | 1.6 | 3.2 | 0.00 | 0.00 | 0.00 | 99 | 1022.1 |
| 20260906100139 | 14 | 18 | 3.2 | 4.8 | 0.00 | 0.00 | 0.00 | 99 | 1022.0 |
| 20260906095634 | 14 | 40 | 3.2 | 4.8 | 0.00 | 0.00 | 0.00 | 99 | 1022.1 |
| 20260906095129 | 14 | 31 | 1.6 | 1.6 | 0.00 | 0.00 | 0.00 | 99 | 1022.1 |
| 20260906094628 | 14 | 298 | 1.6 | 1.6 | 0.00 | 0.00 | 0.00 | 99 | 1022.1 |
| 20260906094124 | 15 | 16 | 0.0 | 1.6 | 0.00 | 0.00 | 0.00 | 99 | 1021.9 |
| 20260906093620 | 14 | 41 | 0.0 | 0.0 | 0.00 | 0.00 | 0.00 | 99 | 1022.0 |
| 20260906093114 | 15 | 41 | 0.0 | 1.6 | 0.00 | 0.00 | 0.00 | 99 | 1021.9 |
| 20260906092609 | 15 | 323 | 1.6 | 1.6 | 0.00 | 0.00 | 0.00 | 99 | 1021.7 |
| 20260906092104 | 15 | 34 | 3.2 | 3.2 | 0.00 | 0.00 | 0.00 | 99 | 1021.9 |
| 20260906091601 | 15 | 3 | 1.6 | 3.2 | 0.00 | 0.00 | 0.00 | 99 | 1022.0 |
| 20260906091057 | 15 | 51 | 1.6 | 3.2 | 0.00 | 0.00 | 0.00 | 99 | 1021.7 |
| 20260906090557 | 15 | 39 | 3.2 | 4.8 | 0.00 | 0.00 | 0.00 | 99 | 1021.8 |
| 20260906090057 | 15 | 28 | 3.2 | 4.8 | 0.00 | 0.00 | 0.00 | 99 | 1021.8 |
| 20260906085556 | 15 | 36 | 4.8 | 4.8 | 0.00 | 0.00 | 0.00 | 99 | 1021.8 |
| 20260906085050 | 15 | 28 | 1.6 | 3.2 | 0.00 | 0.00 | 0.00 | 99 | 1021.8 |
| 20260906084545 | 15 | 24 | 3.2 | 4.8 | 0.00 | 0.00 | 0.00 | 99 | 1021.8 |
| 20260906084044 | 15 | 48 | 1.6 | 3.2 | 0.00 | 0.00 | 0.00 | 99 | 1021.9 |
| 20260906083540 | 15 | 16 | 0.0 | 1.6 | 0.00 | 0.00 | 0.00 | 99 | 1021.6 |
| 20260906083039 | 15 | 5 | 0.0 | 0.0 | 0.00 | 0.00 | 0.00 | 99 | 1021.7 |
| 20260906082534 | 15 | 5 | 0.0 | 1.6 | 0.00 | 0.00 | 0.00 | 99 | 1021.7 |
| 20260906082030 | 15 | 270 | 0.0 | 0.0 | 0.00 | 0.00 | 0.00 | 99 | 1021.7 |
| 20260906081526 | 15 | 343 | 0.0 | 1.6 | 0.00 | 0.00 | 0.00 | 99 | 1021.8 |
| 20260906081021 | 15 | 33 | 3.2 | 3.2 | 0.00 | 0.00 | 0.00 | 99 | 1021.9 |
| 20260906080518 | 15 | 37 | 1.6 | 1.6 | 0.00 | 0.00 | 0.00 | 99 | 1021.5 |
| 20260906080014 | 15 | 312 | 1.6 | 3.2 | 0.00 | 0.00 | 0.00 | 99 | 1021.8 |
| 20260906075508 | 15 | 37 | 3.2 | 3.2 | 0.00 | 0.00 | 0.00 | 99 | 1021.6 |
| 20260906075002 | 15 | 31 | 3.2 | 3.2 | 0.00 | 0.00 | 0.00 | 99 | 1021.5 |
| 20260906074457 | 15 | 353 | 1.6 | 3.2 | 0.00 | 0.00 | 0.00 | 99 | 1022.0 |
| 20260906073955 | 15 | 9 | 0.0 | 3.2 | 0.00 | 0.00 | 0.00 | 99 | 1021.9 |
| 20260906073450 | 15 | 42 | 1.6 | 4.8 | 0.00 | 0.00 | 0.00 | 99 | 1021.6 |
| 20260906072947 | 15 | 19 | 3.2 | 8.0 | 0.00 | 0.00 | 0.00 | 99 | 1021.7 |
| 20260906072442 | 15 | 37 | 3.2 | 4.8 | 0.00 | 0.00 | 0.00 | 99 | 1021.7 |
| 20260906071938 | 15 | 22 | 3.2 | 4.8 | 0.00 | 0.00 | 0.00 | 99 | 1021.9 |
| 20260906071433 | 15 | 36 | 3.2 | 4.8 | 0.00 | 0.00 | 0.00 | 99 | 1021.9 |
| 20260906070929 | 15 | 290 | 1.6 | 1.6 | 0.00 | 0.00 | 0.00 | 99 | 1021.7 |
| 20260906070425 | 15 | 27 | 1.6 | 3.2 | 0.00 | 0.00 | 0.00 | 99 | 1021.5 |
| 20260906065921 | 15 | 296 | 1.6 | 1.6 | 0.00 | 0.00 | 0.00 | 99 | 1021.8 |
| 20260906065415 | 15 | 292 | 0.0 | 1.6 | 0.00 | 0.00 | 0.00 | 99 | 1021.7 |
| 20260906064911 | 15 | 337 | 0.0 | 1.6 | 0.00 | 0.00 | 0.00 | 99 | 1021.6 |
| 20260906064407 | 14 | 267 | 0.0 | 0.0 | 0.00 | 0.00 | 0.00 | 99 | 1021.8 |
| 20260906063907 | 14 | 264 | 0.0 | 0.0 | 0.00 | 0.00 | 0.00 | 99 | 1021.7 |
| 20260906063402 | 15 | 261 | 0.0 | 0.0 | 0.00 | 0.00 | 0.00 | 99 | 1021.6 |
| 20260906062857 | 15 | 266 | 0.0 | 0.0 | 0.00 | 0.00 | 0.00 | 99 | 1021.8 |
| 20260906062356 | 15 | 261 | 0.0 | 0.0 | 0.00 | 0.00 | 0.00 | 99 | 1021.6 |
| 20260906061852 | 15 | 263 | 0.0 | 0.0 | 0.00 | 0.00 | 0.00 | 99 | 1021.5 |
| 20260906061348 | 15 | 265 | 0.0 | 0.0 | 0.00 | 0.00 | 0.00 | 99 | 1021.5 |
| 20260906060842 | 14 | 276 | 0.0 | 0.0 | 0.00 | 0.00 | 0.00 | 99 | 1021.5 |
| 20260906060340 | 14 | 259 | 0.0 | 0.0 | 0.00 | 0.00 | 0.00 | 99 | 1021.4 |
| 20260906055836 | 15 | 259 | 0.0 | 0.0 | 0.00 | 0.00 | 0.00 | 99 | 1021.4 |
| 20260906055331 | 15 | 263 | 0.0 | 0.0 | 0.00 | 0.00 | 0.00 | 99 | 1021.5 |
| 20260906054826 | 15 | 287 | 0.0 | 1.6 | 0.00 | 0.00 | 0.00 | 99 | 1021.5 |
| 20260906054321 | 15 | 263 | 0.0 | 0.0 | 0.00 | 0.00 | 0.00 | 99 | 1021.5 |
| 20260906053818 | 15 | 262 | 0.0 | 0.0 | 0.00 | 0.00 | 0.00 | 99 | 1021.7 |
| 20260906053313 | 15 | 262 | 0.0 | 0.0 | 0.00 | 0.00 | 0.00 | 99 | 1021.5 |
| 20260906052808 | 15 | 263 | 0.0 | 0.0 | 0.00 | 0.00 | 0.00 | 99 | 1021.4 |
| 20260906052306 | 15 | 263 | 0.0 | 0.0 | 0.00 | 0.00 | 0.00 | 99 | 1021.3 |
| 20260906051802 | 15 | 263 | 0.0 | 0.0 | 0.00 | 0.00 | 0.00 | 99 | 1021.3 |
| 20260906051301 | 15 | 264 | 0.0 | 0.0 | 0.00 | 0.00 | 0.00 | 98 | 1021.1 |
| 20260906050756 | 15 | 271 | 0.0 | 1.6 | 0.00 | 0.00 | 0.00 | 99 | 1021.1 |
| 20260906050252 | 15 | 275 | 0.0 | 1.6 | 0.00 | 0.00 | 0.00 | 98 | 1021.1 |
| 20260906045750 | 15 | 336 | 1.6 | 1.6 | 0.00 | 0.00 | 0.00 | 98 | 1021.0 |
| 20260906045245 | 15 | 271 | 0.0 | 0.0 | 0.00 | 0.00 | 0.00 | 98 | 1020.7 |
| 20260906044741 | 15 | 255 | 0.0 | 0.0 | 0.00 | 0.00 | 0.00 | 98 | 1020.8 |
| 20260906044236 | 15 | 256 | 0.0 | 0.0 | 0.00 | 0.00 | 0.00 | 98 | 1020.8 |
| 20260906043732 | 15 | 256 | 0.0 | 0.0 | 0.00 | 0.00 | 0.00 | 98 | 1021.0 |
| 20260906043228 | 15 | 257 | 0.0 | 0.0 | 0.00 | 0.00 | 0.00 | 98 | 1020.7 |
| 20260906042727 | 15 | 257 | 0.0 | 0.0 | 0.00 | 0.00 | 0.00 | 98 | 1020.6 |
| 20260906042226 | 16 | 257 | 0.0 | 0.0 | 0.00 | 0.00 | 0.00 | 98 | 1020.8 |
| 20260906041722 | 16 | 259 | 0.0 | 0.0 | 0.00 | 0.00 | 0.00 | 98 | 1020.9 |
| 20260906041217 | 16 | 238 | 0.0 | 0.0 | 0.00 | 0.00 | 0.00 | 98 | 1020.7 |
| 20260906040713 | 16 | 268 | 0.0 | 1.6 | 0.00 | 0.00 | 0.00 | 98 | 1020.6 |
| 20260906040208 | 16 | 56 | 1.6 | 4.8 | 0.00 | 0.00 | 0.00 | 97 | 1020.7 |
| 20260906035703 | 16 | 335 | 1.6 | 3.2 | 0.00 | 0.00 | 0.00 | 97 | 1020.8 |
| 20260906035159 | 16 | 284 | 0.0 | 1.6 | 0.00 | 0.00 | 0.00 | 97 | 1020.8 |
| 20260906034653 | 16 | 321 | 1.6 | 1.6 | 0.00 | 0.00 | 0.00 | 97 | 1020.7 |
| 20260906034148 | 16 | 310 | 1.6 | 1.6 | 0.00 | 0.00 | 0.00 | 97 | 1020.7 |
| 20260906033643 | 16 | 274 | 0.0 | 1.6 | 0.00 | 0.00 | 0.00 | 96 | 1020.6 |
| 20260906033138 | 16 | 301 | 0.0 | 1.6 | 0.00 | 0.00 | 0.00 | 96 | 1020.6 |
| 20260906032635 | 17 | 266 | 0.0 | 0.0 | 0.00 | 0.00 | 0.00 | 96 | 1020.6 |
| 20260906032134 | 17 | 270 | 0.0 | 0.0 | 0.00 | 0.00 | 0.00 | 96 | 1020.8 |
| 20260906031630 | 17 | 268 | 0.0 | 0.0 | 0.00 | 0.00 | 0.00 | 95 | 1020.8 |
| 20260906031125 | 17 | 266 | 0.0 | 1.6 | 0.00 | 0.00 | 0.00 | 95 | 1020.5 |
| 20260906030624 | 17 | 262 | 0.0 | 0.0 | 0.00 | 0.00 | 0.00 | 94 | 1020.7 |
| 20260906030120 | 17 | 262 | 0.0 | 0.0 | 0.00 | 0.00 | 0.00 | 94 | 1020.4 |
| 20260906025619 | 17 | 262 | 0.0 | 0.0 | 0.00 | 0.00 | 0.00 | 93 | 1020.6 |
| 20260906025118 | 18 | 262 | 0.0 | 0.0 | 0.00 | 0.00 | 0.00 | 93 | 1020.5 |
| 20260906024613 | 18 | 268 | 0.0 | 0.0 | 0.00 | 0.00 | 0.00 | 92 | 1020.6 |
| 20260906024107 | 18 | 271 | 0.0 | 1.6 | 0.00 | 0.00 | 0.00 | 92 | 1020.6 |
| 20260906023603 | 18 | 351 | 1.6 | 1.6 | 0.00 | 0.00 | 0.00 | 91 | 1020.4 |
| 20260906023057 | 18 | 24 | 1.6 | 1.6 | 0.00 | 0.00 | 0.00 | 91 | 1020.4 |
| 20260906022553 | 19 | 56 | 1.6 | 1.6 | 0.00 | 0.00 | 0.00 | 91 | 1020.3 |
| 20260906022048 | 19 | 69 | 1.6 | 3.2 | 0.00 | 0.00 | 0.00 | 90 | 1020.5 |
| 20260906021544 | 19 | 59 | 1.6 | 3.2 | 0.00 | 0.00 | 0.00 | 90 | 1020.3 |
| 20260906021042 | 19 | 32 | 1.6 | 3.2 | 0.00 | 0.00 | 0.00 | 90 | 1020.5 |
| 20260906020537 | 19 | 56 | 0.0 | 1.6 | 0.00 | 0.00 | 0.00 | 89 | 1020.4 |
| 20260906020037 | 19 | 46 | 1.6 | 4.8 | 0.00 | 0.00 | 0.00 | 89 | 1020.4 |
| 20260906015536 | 20 | 48 | 1.6 | 3.2 | 0.00 | 0.00 | 0.00 | 89 | 1020.4 |
| 20260906015035 | 20 | 110 | 3.2 | 3.2 | 0.00 | 0.00 | 0.00 | 89 | 1020.5 |
| 20260906014531 | 20 | 37 | 1.6 | 4.8 | 0.00 | 0.00 | 0.00 | 88 | 1020.2 |
| 20260906014026 | 20 | 34 | 3.2 | 3.2 | 0.00 | 0.00 | 0.00 | 88 | 1020.1 |
| 20260906013521 | 20 | 345 | 1.6 | 3.2 | 0.00 | 0.00 | 0.00 | 88 | 1020.2 |
| 20260906013017 | 20 | 20 | 1.6 | 3.2 | 0.00 | 0.00 | 0.00 | 88 | 1020.2 |
| 20260906012512 | 20 | 71 | 1.6 | 4.8 | 0.00 | 0.00 | 0.00 | 88 | 1020.1 |
| 20260906012011 | 20 | 67 | 4.8 | 4.8 | 0.00 | 0.00 | 0.00 | 88 | 1020.1 |
| 20260906011508 | 20 | 57 | 1.6 | 3.2 | 0.00 | 0.00 | 0.00 | 88 | 1020.0 |
| 20260906011002 | 20 | 49 | 3.2 | 4.8 | 0.00 | 0.00 | 0.00 | 88 | 1020.0 |
| 20260906010457 | 20 | 69 | 3.2 | 4.8 | 0.00 | 0.00 | 0.00 | 87 | 1020.1 |
| 20260906005954 | 20 | 56 | 3.2 | 4.8 | 0.00 | 0.00 | 0.00 | 88 | 1020.0 |
| 20260906005453 | 20 | 70 | 3.2 | 3.2 | 0.00 | 0.00 | 0.00 | 88 | 1019.9 |
| 20260906004951 | 20 | 329 | 1.6 | 3.2 | 0.00 | 0.00 | 0.00 | 89 | 1020.0 |
| 20260906004446 | 20 | 342 | 0.0 | 1.6 | 0.00 | 0.00 | 0.00 | 91 | 1019.9 |
| 20260906003941 | 20 | 279 | 0.0 | 1.6 | 0.00 | 0.00 | 0.00 | 92 | 1019.8 |
| 20260906003442 | 20 | 322 | 1.6 | 1.6 | 0.00 | 0.00 | 0.00 | 91 | 1019.9 |
| 20260906002937 | 20 | 94 | 0.0 | 1.6 | 0.00 | 0.00 | 0.00 | 89 | 1019.8 |
| 20260906002437 | 21 | 91 | 0.0 | 1.6 | 0.00 | 0.00 | 0.00 | 86 | 1019.8 |
| 20260906001932 | 21 | 52 | 0.0 | 1.6 | 0.00 | 0.00 | 0.00 | 86 | 1019.7 |
| 20260906001428 | 21 | 99 | 1.6 | 3.2 | 0.00 | 0.00 | 0.00 | 86 | 1019.8 |
| 20260906000923 | 21 | 199 | 0.0 | 1.6 | 0.00 | 0.00 | 0.00 | 86 | 1019.9 |
| 20260906000418 | 21 | 180 | 0.0 | 1.6 | 0.00 | 0.00 | 0.00 | 85 | 1020.1 |
| 20260905235913 | 21 | 191 | 0.0 | 1.6 | 0.00 | 0.00 | 0.00 | 85 | 1020.3 |
| 20260905235407 | 21 | 134 | 1.6 | 1.6 | 0.00 | 0.00 | 0.00 | 84 | 1020.1 |
| 20260905234902 | 21 | 176 | 1.6 | 1.6 | 0.00 | 0.00 | 0.00 | 84 | 1020.1 |
| 20260905234357 | 22 | 78 | 1.6 | 3.2 | 0.00 | 0.00 | 0.00 | 84 | 1019.8 |
| 20260905233852 | 22 | 186 | 1.6 | 3.2 | 0.00 | 0.00 | 0.00 | 85 | 1019.8 |
| 20260905233347 | 22 | 124 | 1.6 | 3.2 | 0.00 | 0.00 | 0.00 | 84 | 1019.9 |
| 20260905232847 | 22 | 48 | 4.8 | 8.0 | 0.00 | 0.00 | 0.00 | 83 | 1020.0 |
| 20260905232343 | 22 | 68 | 1.6 | 4.8 | 0.00 | 0.00 | 0.00 | 82 | 1020.4 |
| 20260905231838 | 22 | 101 | 3.2 | 4.8 | 0.00 | 0.00 | 0.00 | 82 | 1020.4 |
| 20260905231339 | 22 | 43 | 1.6 | 4.8 | 0.00 | 0.00 | 0.00 | 83 | 1020.2 |
| 20260905230836 | 22 | 58 | 1.6 | 3.2 | 0.00 | 0.00 | 0.00 | 84 | 1020.4 |
| 20260905230333 | 22 | 269 | 0.0 | 0.0 | 0.00 | 0.00 | 0.00 | 83 | 1020.5 |
| 20260905225832 | 23 | 43 | 1.6 | 3.2 | 0.00 | 0.00 | 0.00 | 82 | 1020.3 |
| 20260905225328 | 22 | 70 | 0.0 | 3.2 | 0.00 | 0.00 | 0.00 | 82 | 1020.4 |
| 20260905224828 | 22 | 312 | 0.0 | 4.8 | 0.00 | 0.00 | 0.00 | 83 | 1020.1 |
| 20260905224323 | 22 | 22 | 4.8 | 4.8 | 0.00 | 0.00 | 0.00 | 85 | 1020.2 |
| 20260905223818 | 22 | 83 | 3.2 | 8.0 | 0.00 | 0.00 | 0.00 | 85 | 1020.2 |
| 20260905223316 | 22 | 107 | 1.6 | 11.3 | 0.00 | 0.00 | 0.00 | 84 | 1020.0 |
| 20260905222811 | 23 | 25 | 1.6 | 4.8 | 0.00 | 0.00 | 0.00 | 84 | 1019.8 |
| 20260905222310 | 23 | 74 | 1.6 | 11.3 | 0.00 | 0.00 | 0.00 | 85 | 1019.6 |
| 20260905221806 | 23 | 85 | 4.8 | 12.9 | 0.00 | 0.00 | 0.00 | 86 | 1019.6 |
| 20260905221303 | 23 | 45 | 4.8 | 9.7 | 0.00 | 0.00 | 0.00 | 87 | 1019.9 |
| 20260905220758 | 23 | 58 | 3.2 | 4.8 | 0.00 | 0.00 | 0.00 | 86 | 1020.0 |
| 20260905220254 | 23 | 65 | 6.4 | 9.7 | 0.00 | 0.00 | 0.00 | 87 | 1019.6 |
| 20260905215753 | 22 | 51 | 1.6 | 8.0 | 0.00 | 0.00 | 0.00 | 88 | 1019.8 |
| 20260905215249 | 22 | 30 | 6.4 | 9.7 | 0.00 | 0.00 | 0.00 | 88 | 1019.8 |
| 20260905214744 | 22 | 44 | 3.2 | 8.0 | 0.00 | 0.00 | 0.00 | 88 | 1019.9 |
| 20260905214240 | 23 | 8 | 4.8 | 12.9 | 0.00 | 0.00 | 0.00 | 87 | 1020.0 |
| 20260905213735 | 23 | 305 | 3.2 | 4.8 | 0.00 | 0.00 | 0.00 | 87 | 1019.9 |
| 20260905213231 | 23 | 277 | 3.2 | 4.8 | 0.00 | 0.00 | 0.00 | 86 | 1020.1 |
| 20260905212726 | 23 | 2 | 3.2 | 4.8 | 0.00 | 0.00 | 0.00 | 81 | 1020.0 |
| 20260905212225 | 24 | 49 | 3.2 | 4.8 | 0.00 | 0.00 | 0.00 | 80 | 1019.9 |
| 20260905211725 | 23 | 48 | 4.8 | 8.0 | 0.00 | 0.00 | 0.00 | 81 | 1019.9 |
| 20260905211221 | 23 | 104 | 1.6 | 4.8 | 0.00 | 0.00 | 0.00 | 81 | 1020.2 |
| 20260905210717 | 23 | 67 | 1.6 | 3.2 | 0.00 | 0.00 | 0.00 | 81 | 1019.7 |
| 20260905210212 | 23 | 4 | 3.2 | 4.8 | 0.00 | 0.00 | 0.00 | 82 | 1020.0 |
| 20260905205711 | 23 | 27 | 4.8 | 8.0 | 0.00 | 0.00 | 0.00 | 81 | 1020.2 |
| 20260905205211 | 24 | 14 | 4.8 | 8.0 | 0.00 | 0.00 | 0.00 | 81 | 1020.1 |
| 20260905204710 | 25 | 19 | 1.6 | 1.6 | 0.00 | 0.00 | 0.00 | 80 | 1020.1 |
| 20260905204206 | 23 | 266 | 1.6 | 1.6 | 0.00 | 0.00 | 0.00 | 81 | 1020.1 |
| 20260905203700 | 23 | 283 | 0.0 | 3.2 | 0.00 | 0.00 | 0.00 | 81 | 1019.8 |
| 20260905203155 | 23 | 25 | 1.6 | 4.8 | 0.00 | 0.00 | 0.00 | 81 | 1020.1 |
| 20260905202650 | 23 | 89 | 4.8 | 8.0 | 0.00 | 0.00 | 0.00 | 82 | 1019.9 |
| 20260905202146 | 23 | 8 | 1.6 | 4.8 | 0.00 | 0.00 | 0.00 | 83 | 1019.8 |
| 20260905201641 | 23 | 48 | 4.8 | 11.3 | 0.00 | 0.00 | 0.00 | 85 | 1020.0 |
| 20260905201136 | 23 | 26 | 4.8 | 11.3 | 0.00 | 0.00 | 0.00 | 85 | 1020.3 |
| 20260905200631 | 23 | 53 | 4.8 | 8.0 | 0.00 | 0.00 | 0.00 | 85 | 1019.9 |
| 20260905200127 | 22 | 50 | 6.4 | 11.3 | 0.00 | 0.00 | 0.00 | 86 | 1020.2 |
| 20260905195625 | 22 | 43 | 11.3 | 12.9 | 0.00 | 0.00 | 0.00 | 86 | 1020.1 |
| 20260905195120 | 22 | 58 | 3.2 | 9.7 | 0.00 | 0.00 | 0.00 | 87 | 1020.2 |
| 20260905194621 | 23 | 39 | 6.4 | 12.9 | 0.00 | 0.00 | 0.00 | 86 | 1020.1 |
| 20260905194120 | 22 | 86 | 1.6 | 11.3 | 0.00 | 0.00 | 0.00 | 86 | 1020.2 |
| 20260905193615 | 23 | 24 | 8.0 | 12.9 | 0.00 | 0.00 | 0.00 | 85 | 1019.9 |
| 20260905193110 | 22 | 0 | 6.4 | 11.3 | 0.00 | 0.00 | 0.00 | 86 | 1020.0 |
| 20260905192605 | 23 | 50 | 4.8 | 12.9 | 0.00 | 0.00 | 0.00 | 86 | 1019.9 |
| 20260905192102 | 23 | 78 | 8.0 | 9.7 | 0.00 | 0.00 | 0.00 | 86 | 1020.0 |
| 20260905191600 | 23 | 9 | 3.2 | 9.7 | 0.00 | 0.00 | 0.00 | 86 | 1020.2 |
| 20260905191059 | 23 | 20 | 9.7 | 12.9 | 0.00 | 0.00 | 0.00 | 86 | 1020.1 |
| 20260905190557 | 23 | 40 | 4.8 | 9.7 | 0.00 | 0.00 | 0.00 | 87 | 1020.0 |
| 20260905190056 | 22 | 46 | 6.4 | 12.9 | 0.00 | 0.00 | 0.00 | 87 | 1019.9 |
| 20260905185556 | 22 | 23 | 8.0 | 12.9 | 0.00 | 0.00 | 0.00 | 88 | 1020.0 |
| 20260905185050 | 22 | 39 | 1.6 | 11.3 | 0.00 | 0.00 | 0.00 | 88 | 1020.0 |
| 20260905184545 | 23 | 340 | 4.8 | 12.9 | 0.00 | 0.00 | 0.00 | 87 | 1020.0 |
| 20260905184044 | 22 | 29 | 6.4 | 9.7 | 0.00 | 0.00 | 0.00 | 88 | 1019.9 |
| 20260905183543 | 22 | 39 | 1.6 | 9.7 | 0.00 | 0.00 | 0.00 | 89 | 1019.9 |
| 20260905183039 | 22 | 40 | 4.8 | 11.3 | 0.00 | 0.00 | 0.00 | 89 | 1020.1 |
| 20260905182539 | 22 | 23 | 4.8 | 9.7 | 0.00 | 0.00 | 0.00 | 88 | 1020.3 |
| 20260905182038 | 22 | 46 | 3.2 | 9.7 | 0.00 | 0.00 | 0.00 | 88 | 1020.3 |
| 20260905181533 | 22 | 49 | 4.8 | 9.7 | 0.00 | 0.00 | 0.00 | 88 | 1020.4 |
| 20260905181032 | 22 | 59 | 1.6 | 12.9 | 0.00 | 0.00 | 0.00 | 88 | 1020.2 |
| 20260905180527 | 22 | 354 | 9.7 | 12.9 | 0.00 | 0.00 | 0.00 | 87 | 1020.2 |
| 20260905180023 | 22 | 357 | 3.2 | 4.8 | 0.00 | 0.00 | 0.00 | 88 | 1020.3 |
| 20260905175522 | 22 | 52 | 3.2 | 9.7 | 0.00 | 0.00 | 0.00 | 88 | 1020.1 |
| 20260905175018 | 22 | 21 | 4.8 | 9.7 | 0.00 | 0.00 | 0.00 | 88 | 1020.2 |
| 20260905174513 | 22 | 34 | 4.8 | 4.8 | 0.00 | 0.00 | 0.00 | 88 | 1020.1 |
| 20260905174009 | 22 | 29 | 6.4 | 9.7 | 0.00 | 0.00 | 0.00 | 89 | 1020.0 |
| 20260905173504 | 21 | 55 | 4.8 | 11.3 | 0.00 | 0.00 | 0.00 | 90 | 1019.9 |
| 20260905173000 | 21 | 92 | 4.8 | 11.3 | 0.00 | 0.00 | 0.00 | 90 | 1020.1 |
| 20260905172458 | 21 | 47 | 4.8 | 11.3 | 0.00 | 0.00 | 0.00 | 90 | 1020.0 |
| 20260905171954 | 22 | 23 | 8.0 | 9.7 | 0.00 | 0.00 | 0.00 | 90 | 1020.1 |
| 20260905171450 | 21 | 81 | 6.4 | 9.7 | 0.00 | 0.00 | 0.00 | 91 | 1020.1 |
| 20260905170946 | 21 | 53 | 4.8 | 9.7 | 0.00 | 0.00 | 0.00 | 91 | 1020.0 |
| 20260905170442 | 21 | 40 | 4.8 | 9.7 | 0.00 | 0.00 | 0.00 | 91 | 1020.3 |
| 20260905165941 | 21 | 105 | 6.4 | 9.7 | 0.00 | 0.00 | 0.00 | 91 | 1020.3 |
| 20260905165437 | 21 | 76 | 3.2 | 9.7 | 0.00 | 0.00 | 0.00 | 91 | 1020.3 |
| 20260905164932 | 21 | 82 | 0.0 | 9.7 | 0.00 | 0.00 | 0.00 | 91 | 1020.4 |
| 20260905164426 | 21 | 113 | 3.2 | 4.8 | 0.00 | 0.00 | 0.00 | 91 | 1020.4 |
| 20260905163921 | 21 | 52 | 4.8 | 11.3 | 0.00 | 0.00 | 0.00 | 91 | 1020.5 |
| 20260905163418 | 21 | 33 | 4.8 | 11.3 | 0.00 | 0.00 | 0.00 | 92 | 1020.3 |
| 20260905162913 | 21 | 70 | 6.4 | 9.7 | 0.00 | 0.00 | 0.00 | 92 | 1020.4 |
| 20260905162408 | 21 | 64 | 8.0 | 11.3 | 0.00 | 0.00 | 0.00 | 91 | 1020.3 |
| 20260905161903 | 21 | 73 | 4.8 | 8.0 | 0.00 | 0.00 | 0.00 | 91 | 1020.4 |